Regional Weather Roundup
Issued by NWS

Home | Current Version | Previous Version | Text Only | Print | Product List | Glossary On
Versions: 1 2 3 4 5 6 7 8 9 10 11 12 13 14 15 16 17 18 19 20 21 22 23 24 25 26 27 28 29 30 31 32 33 34 35 36 37 38 39 40 41 42 43 44 45 46 47 48 49 50
000
ASUS43 KOAX 241602
RWRNE

WEATHER ROUNDUP FOR NEBRASKA
NATIONAL WEATHER SERVICE OMAHA NE
1000 AM CST SAT FEB 24 2018

NOTES: SATELLITE DATA IS BEING USED TO AUGMENT CLOUD COVER ABOVE
       12000 FEET.
       "FAIR" INDICATES FEW OR NO CLOUDS BELOW 12,000 FEET WITH NO
       SIGNIFICANT WEATHER AND/OR OBSTRUCTIONS TO VISIBILITY.


NEZ001>004-019>022-054>056-241700-
NEBRASKA PANHANDLE

CITY           SKY/WX    TMP DP  RH WIND       PRES   REMARKS
SCOTTSBLUFF    SUNNY     20  12  71 NW12      29.78F WCI   8
ALLIANCE       SUNNY     19  15  84 W14       29.72F WCI   6
CHADRON        MOSUNNY   17  10  74 W10       29.77F WCI   5
GORDON         CLOUDY    26  18  71 W12       29.70F WCI  15
KIMBALL        SUNNY     20   8  59 NW21G29   29.76S WCI   3
SIDNEY         SUNNY     27   9  46 W25G37    29.77R WCI  12
$$

NEZ057>060-069>072-079>082-241700-
SOUTHWEST NEBRASKA

CITY           SKY/WX    TMP DP  RH WIND       PRES   REMARKS
NORTH PLATTE   SNOW      24  21  88 SW7       29.81F VSB 1/2 WCI  16
IMPERIAL       CLOUDY    25  24  96 S7        29.79F WCI  17
LEXINGTON      CLOUDY    25  23  93 S5        29.83F FOG     WCI  19
MCCOOK         LGT SNOW  25  24  96 S6        29.82F FOG     WCI  18
OGALLALA       PTSUNNY   26  22  85 SW8       29.78F WCI  17
$$

NEZ005>010-023>029-035>040-094-241700-
NORTH CENTRAL NEBRASKA

CITY           SKY/WX    TMP DP  RH WIND       PRES   REMARKS
VALENTINE      LGT SNOW  20  16  84 S5        29.78F VSB 3/4 WCI  13
AINSWORTH      FLURRIES  18  17  96 S8        29.79F WCI   7
BROKEN BOW     CLOUDY    23  19  85 S6        29.82F WCI  16
O`NEILL        LGT SNOW  15  13  95 CALM      29.88F
ORD            LGT SNOW  18  16  92 SE3       29.86F FOG
THEDFORD         N/A     21  19  93 S7        29.79F WCI  13
$$

NEZ041-046>049-061>064-073>077-083>087-241700-
SOUTH CENTRAL NEBRASKA

CITY           SKY/WX    TMP DP  RH WIND       PRES   REMARKS
GRAND ISLAND   CLOUDY    20  18  92 E6        29.87F FOG     WCI  12
AURORA         LGT SNOW N/A N/A N/A N5        29.88F
HASTINGS       LGT SNOW  21  18  88 NE7       29.86F FOG     WCI  12
HEBRON         LGT SNOW  27  26  96 N7        29.85F WCI  19
HOLDREGE       CLOUDY    22  21  96 CALM      29.83F FOG
KEARNEY        FLURRIES  22  20  92 CALM      29.85F
YORK           LGT SNOW  23  23 100 CALM      29.87F
$$

NEZ011>018-030>034-042>045-241700-
NORTHEAST NEBRASKA

CITY           SKY/WX    TMP DP  RH WIND       PRES   REMARKS
NORFOLK        LGT SNOW  21  19  92 NW5       29.89F VSB 3/4 WCI  15
ALBION         MIX PCPN  21  19  93 E3        29.89F
BLAIR          MIX PCPN  27  26  95 E3        29.89F
COLUMBUS       LGT SNOW  23  21  92 NW7       29.91F VSB 3/4 WCI  15
FREMONT        MIX PCPN  25  24  98 CALM      29.91F
TEKAMAH        FRZ RAIN  25  23  93 N7        29.93F FOG     WCI  17
WAYNE          LGT SNOW  22  21  96 N5        29.93F VSB 3/4 WCI  15
$$

NEZ050>053-065>068-078-088>093-241700-
SOUTHEAST NEBRASKA

CITY           SKY/WX    TMP DP  RH WIND       PRES   REMARKS
LINCOLN        CLOUDY    27  24  89 N5        29.89F FOG     WCI  22
OMAHA EPPLEY   FRZ DRZL  27  26  96 CALM      29.91F VSB 1
BEATRICE       CLOUDY    30  29  98 NE7       29.84F FOG     WCI  23
FALLS CITY     FOG       30  29  96 NE6       29.85F VSB 1   WCI  24
NEBRASKA CITY  CLOUDY    29  29 100 NE3       29.87F FOG
PLATTSMOUTH    CLOUDY    28  28  99 E5        29.89F FOG     WCI  23
$$

NEZ044-045-051>053-067-241700-
OMAHA AREA

CITY           SKY/WX    TMP DP  RH WIND       PRES   REMARKS
OMAHA EPPLEY   FRZ DRZL  27  26  96 CALM      29.91F VSB 1
BLAIR          MIX PCPN  27  26  95 E3        29.89F
FREMONT        MIX PCPN  25  24  98 CALM      29.91F
MILLARD        MIX PCPN  29  27  94 CALM      29.90F
OFFUTT AFB     FRZ DRZL  28  27  93 CALM      29.90F FOG
PLATTSMOUTH    CLOUDY    28  28  99 E5        29.89F FOG     WCI  23
WAHOO          LGT SNOW  26  25  95 CALM      29.91F
$$



USA.gov is the U.S. government's official web portal to all federal, state and local government web resources and services.